National Weather Service United States Department of Commerce

Latest Hourly Weather Roundup

TOPSWRTT 000
TTAA00 KICT 091712

Wichita AWIPS Roundup
National Weather Service Wichita KS
1200 PM CDT THU APR 09 2020

....Central Kansas....
  
CITY           SKY/WX    TMP DP  RH WIND       PRES   REMARKS
RUSSELL        FAIR      53  23  31 NW5       30.17S                  
SALINA         FAIR      56  26  31 N8        30.18S                  
GREAT BEND     FAIR      54  29  38 VRB7      30.19S                  
ELLSWORTH      SUNNY     55  23  28 W9        30.17S                  
LYONS          FAIR      53  24  32 N6        30.18S                  
MCPHERSON      SUNNY     55  27  33 N7        30.17F                  
HAYS           FAIR      54  25  32 CALM      30.19S                  

....South Central Kansas....
  
CITY           SKY/WX    TMP DP  RH WIND       PRES   REMARKS
HUTCHINSON     FAIR      55  24  30 NE9       30.17R                  
NEWTON         PTSUNNY   54  27  35 NE8       30.16S                  
KINGMAN        PTSUNNY   57  30  35 NE7       30.17S                  
WICHITA (ICT)  PTSUNNY   59  30  33 N9        30.16R                  
JABARA ARPT    CLOUDY    57  26  30 N7        30.15S                  
BEECH ARPT     CLOUDY    56  26  31 NE8       30.15S                  
MCCONNELL AFB  NOT AVBL                                               
BENTON         CLOUDY    55  26  32 N9        30.15S                  
EL DORADO      CLOUDY    59  25  27 N10       30.15R                  
AUGUSTA        CLOUDY    55  28  35 N12       30.15S                  
HARPER         NOT AVBL                                               
WELLINGTON     CLOUDY    59  30  33 N8        30.14S                  
WINFIELD       PTSUNNY   60  28  29 N8G20     30.15R                  
 
....Southeast Kansas....
  
CITY           SKY/WX    TMP DP  RH WIND       PRES   REMARKS
EUREKA         PTSUNNY   58  26  30 N8        30.14R                  
IOLA             N/A     56  29  34 N12G17    30.13S                  
CHANUTE        FAIR      59  31  34 VRB7G18   30.12F                  
PARSONS        FAIR      62  32  32 N9G17     30.11F                  
COFFEYVILLE    FAIR      62  29  28 N9        30.10S                  
INDEPENDENCE   FAIR      61  31  31 N10       30.13R                  
FORT SCOTT     SUNNY     59  30  33 NW8       30.09S                  
PITTSBURG      FAIR      58  32  37 N9G17     30.09S                  

....Western Kansas....
  
CITY           SKY/WX    TMP DP  RH WIND       PRES   REMARKS
GOODLAND       CLOUDY    50  25  37 CALM      30.19F                  
HILL CITY      PTSUNNY   52  25  35 MISG      30.19F                  
LIBERAL        FAIR      55  31  39 E13       30.18S                  
GARDEN CITY    FAIR      54  29  38 E5        30.18S                  
DODGE CITY     FAIR      56  29  35 NE10      30.18S                  
PRATT          FAIR      56  26  32 NE6       30.19R                  
MEDICINE LODGE   N/A     60  30  32 N10G16    30.16R                  

....Northeast Kansas....
  
CITY           SKY/WX    TMP DP  RH WIND       PRES   REMARKS
CONCORDIA      FAIR      56  22  26 N15G28    30.17R                  
TOPEKA         FAIR      55  24  30 N17G24    30.12S                  
MANHATTAN      FAIR      58  23  26 NW9G18    30.14F                  
LAWRENCE       FAIR      56  23  27 N18G28    30.11S                  
OLATHE         FAIR      54  23  30 NW12G24   30.09S                  
EMPORIA        FAIR      56  23  27 NW12G17   30.13F                  

....Oklahoma....
  
CITY           SKY/WX    TMP DP  RH WIND       PRES   REMARKS
GAGE           FAIR      59  30  33 E12G23    30.15R                  
PONCA CITY     FAIR      64  32  30 N12       30.13R                  
BARTLESVILLE   FAIR      64  33  31 N12G22    30.13R                  
TULSA          PTSUNNY   66  36  32 NE12      30.09R                  
OKLAHOMA CITY  PTSUNNY   64  38  38 NE14      30.09R                  

Note: "fair" indicates few or no clouds below 12,000 feet with no
significant weather and/or obstructions to visibility.